Find Starlink 30544

NORAD ID: 58055 Int'l Des: 2023-158 Owner: SPXS Country: US Constellation: starlink operational
LEOCIRCULAR

当前视图

正在加载3D地球...

About Starlink 30544

Starlink 30544 (NORAD 58055) is a starlink constellation satellite (v2 mini) launched Oct 13, 2023 by SPXS of US. It operates in LEO, CIRCULAR orbit with a mass of 730.00 kg.

关于 Starlink 30544

正在加载描述...

即将过境

Passes for default location (London). Set your location on the main map for personalized predictions.

高度历史

Loading altitude history...

两行轨道根数

1 58055U 23158E 26178.53871334 .00000227 00000-0 17759-4 0 9994
2 58055 43.0007 126.3631 0001182 265.6757 94.3959 15.27576146150370
Epoch: Jun 27, 2026 • Age: 7 hours

当前状态

高度 487.0 km
速度 7.63 km/s
星下点 43.12°N, 7.7°E
发射日期 Oct 13, 2023
运行时间 2.7 years
类型 internet

技术详情

分类 Payload
质量 730.00 kg
干质量 700.00 kg
总质量 730.00 kg
长度 0.30 m
直径 4.10 m
跨度 29.00 m
形状 Box + pan
制造商 SPXS
平台类型 Starlink V2M
阶段状态 In Orbit
所有者/国家 SPXS/US

Most Searched